Geneva, Switzerland

5:49 AM CEST on May 30, 2017 (GMT +0200)
Cointrin

Weather History for LSGG - October, 2012

Change the Weather History Date:

Saturday, October 6, 2012

  Actual Average Record
Temperature  
Mean Temperature 60 °F -  
Max Temperature 73 °F 55 °F 73 °F (2012)
Min Temperature 47 °F 41 °F 35 °F (2003)
Degree Days  
Heating Degree Days 5    
Growing Degree Days 10 (Base 50)    
Moisture  
Dew Point 52 °F    
Average Humidity 74    
Maximum Humidity 100    
Minimum Humidity 37    
Precipitation  
Precipitation 0.00 in 0.10 in - ()
Sea Level Pressure  
Sea Level Pressure 30.09 in    
Wind  
Wind Speed 4 mph ()    
Max Wind Speed 12 mph    
Max Gust Speed -    
Visibility 8.8 miles    
Events Fog , Rain    
Averages and records for this station are not official NWS values.
T = Trace of Precipitation, MM = Missing Value Source: Averaged Metar Reports

Daily Weather History Graph

Daily Weather History Graph

Search for Another Location

Airport or City:

Trip Planner

Search our weather history database for the weather conditions in past years. The results will help you decide how hot, cold, wet, or windy it might be!

Date:

Astronomy

Oct. 06, 2012 Rise Set
Actual Time 7:40 AM CEST 7:05 PM CEST
Civil Twilight 7:10 AM CEST 7:35 PM CEST
Nautical Twilight 6:36 AM CEST 8:09 PM CEST
Astronomical Twilight 6:00 AM CEST 8:44 PM CEST
Moon 10:51 PM CEST (10/6) 1:39 PM CEST (10/6)
Length of Visible Light 12h 24m
Length of Day
11h 24m
Waning Gibbous, 68% of the Moon is Illuminated
Oct 6
Waning Gibbous
Oct 8
Last Quarter
Oct 15
New
Oct 22
First Quarter
Oct 29
Full

Hourly Weather History & Observations

Time (CEST) Temp. Dew Point Humidity Pressure Visibility Wind Dir Wind Speed Gust Speed Precip Events Conditions
12:00 AM 52 °F 48 °F 83% 30.13 in - North 1.2 mph - -  
12:20 AM 51.8 °F 50.0 °F 94% 30.12 in - Calm Calm - N/A   Clear
12:50 AM 51.8 °F 48.2 °F 88% 30.12 in - Variable 1.2 mph - N/A   Clear
1:00 AM 52 °F 49 °F 84% 30.14 in - West 1.2 mph - -  
1:20 AM 50.0 °F 48.2 °F 94% 30.12 in - Variable 1.2 mph - N/A   Clear
1:50 AM 50.0 °F 48.2 °F 94% 30.12 in - Variable 1.2 mph - N/A   Clear
2:00 AM 51 °F 48 °F 85% 30.14 in 19 mi West 1.2 mph - -  
2:20 AM 50.0 °F 48.2 °F 94% 30.12 in - Variable 1.2 mph - N/A   Clear
2:50 AM 50.0 °F 48.2 °F 94% 30.12 in - Variable 2.3 mph - N/A   Clear
3:00 AM 49 °F 47 °F 91% 30.14 in - Calm Calm - -  
3:50 AM 50.0 °F 48.2 °F 94% 30.09 in - Calm Calm - N/A   Clear
4:00 AM 49 °F 46 °F 87% 30.13 in - WNW 1.2 mph - -  
4:20 AM 50.0 °F 48.2 °F 94% 30.09 in - Variable 1.2 mph - N/A   Clear
4:50 AM 48.2 °F 46.4 °F 93% 30.09 in - Calm Calm - N/A   Clear
5:20 AM 48.2 °F 48.2 °F 100% 30.09 in - Variable 2.3 mph - N/A   Clear
5:50 AM 48.2 °F 46.4 °F 93% 30.09 in - Variable 1.2 mph - N/A   Clear
6:00 AM 48 °F 46 °F 89% 30.12 in - NW 2.3 mph - -  
6:20 AM 48.2 °F 48.2 °F 100% 30.09 in - Variable 1.2 mph - N/A   Clear
6:50 AM 48.2 °F 48.2 °F 100% 30.09 in - WNW 2.3 mph - N/A   Clear
7:00 AM 49 °F 47 °F 92% 30.12 in - WSW 2.3 mph - -  
7:20 AM 48.2 °F 48.2 °F 100% 30.09 in - Variable 1.2 mph - N/A   Clear
7:50 AM 48.2 °F 48.2 °F 100% 30.09 in 6.2 mi Calm Calm - N/A Fog Shallow Fog
8:00 AM 49 °F 47 °F 92% 30.13 in 16 mi NW 2.3 mph - - Fog Patches of Fog
8:20 AM 50.0 °F 48.2 °F 94% 30.12 in - Variable 1.2 mph - N/A   Clear
8:50 AM 51.8 °F 50.0 °F 94% 30.12 in - Variable 2.3 mph - N/A   Clear
9:00 AM 53 °F 50 °F 87% 30.14 in - West 2.3 mph - -  
9:20 AM 55.4 °F 51.8 °F 88% 30.12 in 6.2 mi SW 4.6 mph - N/A   Partly Cloudy
9:50 AM 60.8 °F 51.8 °F 72% 30.12 in 6.2 mi WSW 4.6 mph - N/A   Partly Cloudy
10:00 AM 61 °F 50 °F 59% 30.12 in - SW 6.9 mph - -  
10:20 AM 62.6 °F 51.8 °F 68% 30.12 in 6.2 mi SW 10.4 mph - N/A   Scattered Clouds
10:50 AM 62.6 °F 51.8 °F 68% 30.12 in 6.2 mi SW 11.5 mph - N/A   Scattered Clouds
11:20 AM 64.4 °F 51.8 °F 64% 30.12 in - SW 10.4 mph - N/A   Clear
11:50 AM 68.0 °F 53.6 °F 60% 30.12 in - WSW 10.4 mph - N/A   Clear
12:00 PM 68 °F 52 °F 45% 30.10 in - WSW 11.5 mph - -  
12:20 PM 68.0 °F 51.8 °F 56% 30.12 in 6.2 mi SW 10.4 mph - N/A   Scattered Clouds
12:50 PM 69.8 °F 50.0 °F 49% 30.12 in - WSW 10.4 mph - N/A   Clear
1:00 PM 70 °F 51 °F 40% 30.08 in - WSW 10.4 mph - -  
1:20 PM 71.6 °F 53.6 °F 53% 30.12 in - WSW 8.1 mph - N/A   Clear
1:50 PM 71.6 °F 51.8 °F 50% 30.09 in - SSW 10.4 mph - N/A   Clear
2:00 PM 72 °F 51 °F 37% 30.06 in 17 mi SSW 11.5 mph - -   Clear
2:20 PM 73.4 °F 53.6 °F 50% 30.09 in 6.2 mi SSW 10.4 mph - N/A   Mostly Cloudy
2:50 PM 73.4 °F 53.6 °F 50% 30.09 in - SW 10.4 mph - N/A   Clear
3:20 PM 71.6 °F 53.6 °F 53% 30.06 in - SW 10.4 mph - N/A   Clear
3:50 PM 73.4 °F 55.4 °F 53% 30.06 in - SW 8.1 mph - N/A   Clear
4:20 PM 73.4 °F 55.4 °F 53% 30.06 in - SW 10.4 mph - N/A   Clear
4:50 PM 71.6 °F 55.4 °F 57% 30.06 in - SW 5.8 mph - N/A   Clear
5:20 PM 71.6 °F 57.2 °F 60% 30.04 in - SW 5.8 mph - N/A   Clear
5:50 PM 69.8 °F 57.2 °F 64% 30.04 in - SW 6.9 mph - N/A   Clear
6:00 PM 69 °F 56 °F 55% 30.01 in - WSW 5.8 mph - -  
6:20 PM 69.8 °F 57.2 °F 64% 30.04 in - WSW 5.8 mph - N/A   Clear
6:50 PM 66.2 °F 57.2 °F 73% 30.04 in - Variable 2.3 mph - N/A   Clear
7:00 PM 65 °F 56 °F 66% 30.01 in - West 3.5 mph - -  
7:20 PM 66.2 °F 57.2 °F 73% 30.04 in - West 6.9 mph - N/A   Clear
7:50 PM 66.2 °F 57.2 °F 73% 30.04 in - West 6.9 mph - N/A   Clear
8:00 PM 65 °F 55 °F 62% 30.01 in 12 mi West 5.8 mph - -   Overcast
8:20 PM 64.4 °F 57.2 °F 77% 30.04 in - West 3.5 mph - N/A   Clear
8:50 PM 64.4 °F 55.4 °F 73% 30.04 in - WSW 6.9 mph - N/A   Clear
9:00 PM 65 °F 55 °F 62% 30.02 in - WSW 6.9 mph - -  
9:20 PM 66.2 °F 55.4 °F 68% 30.04 in - WSW 9.2 mph - N/A   Clear
9:50 PM 66.2 °F 55.4 °F 68% 30.04 in - SW 10.4 mph - N/A   Clear
10:00 PM 65 °F 55 °F 62% 30.03 in - WSW 8.1 mph - -  
10:20 PM 66.2 °F 55.4 °F 68% 30.06 in 6.2 mi SW 10.4 mph - N/A   Mostly Cloudy
10:50 PM 66.2 °F 57.2 °F 73% 30.06 in 6.2 mi SW 9.2 mph - N/A   Mostly Cloudy
11:20 PM 66.2 °F 55.4 °F 68% 30.06 in 6.2 mi SW 10.4 mph - N/A Rain Light Rain
11:50 PM 64.4 °F 57.2 °F 77% 30.09 in 5.6 mi SSW 9.2 mph - N/A Rain Light Rain